Location: Banff
(51.1667°N, 115.5667°W)
Time: 11:13:58
(UTC+00:00)

A-11 Canister half - Pass Details

Date: 01 December 2020
Orbit: 1524 x 1684 km, 47.3° (Epoch: 20 January)

Event Time Altitude Azimuth Distance (km) Brightness Sun altitude
Exits shadow 11:59:14 - 199° (SSW) 4,192 11.1 -31.2°
Reaches altitude 10° 12:00:12 10° 196° (SSW) 3,941 10.9 -31.1°
Maximum altitude 12:08:42 32° 139° (SE) 2,588 10.4 -29.8°
Drops below altitude 10° 12:17:08 10° 81° (E) 3,910 12.1 -28.4°
Sets 12:20:40 0° 72° (ENE) 4,880 12.7 -27.9°
